Content
SEND FEEDBACK

Daily
Averages
Monthly
Summary
Switzerland

GENEVA, SWITZERLAND


Home > Europe > Switzerland
Elevation: 1364 feet     Latitude: 46 15N     Longitude: 006 08E

WEATHER
 
SELECT A DAY
Number of Records: 305,659;   Date Range: 7/1/96 - 7/26/14
 
SHARE

PRINT THIS DATA

[ ← Previous Day ]
WEATHER ALMANAC - JULY 3, 2013
[ Next Day → ]
[ °C ]   °F
Weather ElementAverageHighLow
Temperature64.4 °F69.8 °F (12:20 am)59 °F (5:50 am)
Dewpoint58.2 °F62.6 °F (9:50 pm)51.8 °F (12:20 am)
Humidity79.4 %100 % (9:50 pm)47 % (1:00 am)
Barometer30.01 in30.09 in (10:50 pm)29.93 in (4:00 am)
Wind Speed8 mph16.1 mph (4:00 pm)
Weather ElementAverage
Visibility6.5 mi
Wind DirectionSSW (209.1 °)

Weather ElementTotal
Precipitation---
Heating Degree Days0.6 (Base 65)
Growing Degree Days14.4 (Base 50)
Averaged from 65 records on July 3, 2013
WEATHER CONDITIONS BREAKOUT
WIND DIRECTION BREAKOUT
WEATHER BY HOUR - JULY 3, 2013
[ °C ]   °F
Local TimeTemperatureDewpointHumidityBarometerVisibilityWind DirectionWind SpeedGust SpeedPrecipitationEventsConditions
12:20 AM69.8 °F51.8 °F53 %30.01 in6.2 miSSW (200°)8.1 mphMostly Cloudy
12:50 AM68.0 °F53.6 °F60 %30.01 in6.2 miSW (230°)4.6 mphRainLight Rain Showers
1:00 AM68.0 °F52.0 °F47 %29.97 inSW (220°)6.9 mph
1:20 AM66.2 °F53.6 °F64 %30.01 in6.2 miSSW (200°)3.5 mphRainLight Rain Showers
1:50 AM64.4 °F55.4 °F73 %29.98 in6.2 miCalmRainLight Rain Showers
2:00 AM65.0 °F54.0 °F60 %29.96 in7.0 miWNW (290°)5.8 mphRainLight Rain Showers
2:20 AM64.4 °F55.4 °F73 %30.01 in6.2 miWNW (290°)6.9 mphRainLight Rain Showers
2:50 AM62.6 °F57.2 °F82 %29.98 in6.2 miWest (260°)3.5 mphRainLight Rain Showers
3:00 AM63.0 °F56.0 °F71 %29.96 inSSE (160°)4.6 mph
3:50 AM62.6 °F57.2 °F82 %29.95 in6.2 miSE (130°)1.2 mphMostly Cloudy
4:00 AM62.0 °F58.0 °F81 %29.93 inNNW (330°)3.5 mph
4:20 AM62.6 °F59.0 °F88 %29.95 in6.2 miWest (280°)3.5 mphRainLight Rain Showers
4:50 AM62.6 °F59.0 °F88 %29.98 in6.2 miWSW (240°)6.9 mphRainLight Rain Showers
5:20 AM60.8 °F59.0 °F94 %30.01 in5.6 miWSW (240°)10.4 mphRainRain Showers
5:50 AM59.0 °F57.2 °F94 %29.98 in6.2 miWSW (250°)4.6 mphRainLight Rain
6:00 AM60.0 °F57.0 °F87 %29.98 inWest (260°)5.8 mph
6:20 AM59.0 °F57.2 °F94 %29.98 in6.2 miVariable3.5 mphRainLight Rain
6:50 AM59.0 °F57.2 °F94 %30.01 in6.2 miSW (230°)9.2 mphRainLight Rain
7:00 AM60.0 °F56.0 °F83 %29.99 inWSW (240°)8.1 mph
7:20 AM60.8 °F57.2 °F88 %30.01 in6.2 miWSW (250°)5.8 mphRainLight Rain
7:50 AM60.8 °F57.2 °F88 %30.01 in5.6 miSW (220°)11.5 mphRainLight Rain
8:00 AM60.0 °F57.0 °F85 %29.99 in11.0 miWest (260°)5.8 mphRainLight Rain
8:20 AM60.8 °F57.2 °F88 %30.01 in6.2 miSW (230°)5.8 mphMostly Cloudy
8:50 AM60.8 °F59.0 °F94 %30.01 in6.2 miWSW (240°)6.9 mphMostly Cloudy
9:00 AM61.0 °F57.0 °F83 %29.99 inWSW (240°)6.9 mph
9:20 AM60.8 °F57.2 °F88 %30.01 in6.2 miWSW (240°)6.9 mphMostly Cloudy
9:50 AM62.6 °F57.2 °F82 %30.01 in6.2 miWSW (240°)10.4 mphMostly Cloudy
10:00 AM63.0 °F56.0 °F72 %29.99 inWSW (240°)9.2 mph
10:20 AM62.6 °F57.2 °F82 %30.01 in6.2 miWSW (240°)10.4 mphMostly Cloudy
10:50 AM64.4 °F57.2 °F77 %30.01 in6.2 miSW (230°)11.5 mphMostly Cloudy
11:20 AM64.4 °F57.2 °F77 %30.01 in6.2 miSW (230°)12.7 mphMostly Cloudy
11:50 AM64.4 °F57.2 °F77 %30.01 in6.2 miSW (230°)11.5 mphRainLight Rain
12:00 PM65.0 °F57.0 °F69 %29.98 inSW (230°)10.4 mph
12:20 PM64.4 °F59.0 °F83 %30.01 in5.6 miWSW (240°)10.4 mphRainLight Rain
12:50 PM64.4 °F59.0 °F83 %30.01 in6.2 miWSW (240°)9.2 mphMostly Cloudy
1:00 PM66.0 °F59.0 °F71 %29.98 inSW (230°)10.4 mph
1:20 PM66.2 °F59.0 °F78 %30.01 in6.2 miWSW (240°)9.2 mphMostly Cloudy
1:50 PM66.2 °F59.0 °F78 %30.01 in6.2 miWSW (240°)12.7 mphMostly Cloudy
2:00 PM66.0 °F58.0 °F69 %29.99 in11.0 miSW (230°)11.5 mphRainLight Rain Showers
2:20 PM66.2 °F59.0 °F78 %30.01 in6.2 miSW (230°)10.4 mphMostly Cloudy
2:50 PM68.0 °F59.0 °F73 %30.01 in6.2 miSW (230°)10.4 mphMostly Cloudy
3:00 PM67.0 °F59.0 °F67 %29.98 inSW (220°)15.0 mph
3:20 PM68.0 °F59.0 °F73 %30.01 in6.2 miSW (230°)9.2 mphMostly Cloudy
3:50 PM68.0 °F60.8 °F78 %30.01 in6.2 miSSW (210°)15.0 mphMostly Cloudy
4:00 PM67.0 °F59.0 °F67 %29.99 inSW (220°)16.1 mph
4:20 PM68.0 °F59.0 °F73 %30.04 in6.2 miSSW (210°)15.0 mphRainLight Rain Showers
4:50 PM69.8 °F59.0 °F68 %30.04 in6.2 miSSW (210°)13.8 mphMostly Cloudy
5:20 PM68.0 °F60.8 °F78 %30.04 in6.2 miSW (220°)15.0 mphRainLight Rain Showers
5:50 PM66.2 °F60.8 °F83 %30.04 in6.2 miSSW (200°)15.0 mphMostly Cloudy
6:00 PM67.0 °F59.0 °F67 %29.99 inSSW (210°)12.7 mph
6:20 PM68.0 °F59.0 °F73 %30.04 in6.2 miSSW (200°)13.8 mphMostly Cloudy
6:50 PM66.2 °F60.8 °F83 %30.04 in6.2 miSW (220°)8.1 mphMostly Cloudy
7:00 PM67.0 °F59.0 °F70 %29.99 inSSW (210°)10.4 mph
7:20 PM68.0 °F60.8 °F78 %30.04 in6.2 miWSW (240°)5.8 mphMostly Cloudy
7:50 PM68.0 °F60.8 °F78 %30.04 in6.2 miSW (220°)6.9 mphMostly Cloudy
8:00 PM67.0 °F58.0 °F67 %30.00 in19.0 miSouth (190°)8.1 mphPartly Cloudy
8:20 PM68.0 °F59.0 °F73 %30.04 in6.2 miWSW (240°)5.8 mphMostly Cloudy
8:50 PM66.2 °F60.8 °F83 %30.06 in2.8 miWest (270°)4.6 mphRainLight Rain Showers
9:00 PM64.0 °F61.0 °F87 %30.03 inSW (230°)5.8 mph
9:20 PM64.4 °F60.8 °F88 %30.06 in6.2 miSW (220°)3.5 mphMostly Cloudy
9:50 PM62.6 °F62.6 °F100 %30.06 in6.2 miSouth (170°)3.5 mphMostly Cloudy
10:20 PM62.6 °F62.6 °F100 %30.06 in6.2 miVariable2.3 mphMostly Cloudy
10:50 PM62.6 °F60.8 °F94 %30.09 in6.2 miVariable1.2 mphMostly Cloudy
11:20 PM62.6 °F62.6 °F100 %30.09 in5.0 miVariable2.3 mphRainLight Rain Showers
11:50 PM62.6 °F62.6 °F100 %30.09 in6.2 miVariable2.3 mphMostly Cloudy
Hourly data recorded from LSGG, located miles away from Geneva, Switzerland







STORIES FROM OUR PARTNERS